Location: Doughton Park
(36.4224°N, 81.1835°W)
Time: 12:01:05
(UTC-05:00)

ISS - All Passes

Search period start: 27 November 2014 00:00
Search period end: 07 December 2014 00:00
Orbit: 407 x 417 km, 51.6° (Epoch: 27 November)

Date Brightness Start Highest point End Pass type
(mag) Time Alt. Az. Time Alt. Az. Time Alt. Az.
27 Nov - 00:18:42 10° WNW 00:21:09 19° NNW 00:23:37 10° NNE night (unlit)
27 Nov - 05:12:01 10° NNW 05:14:42 22° NNE 05:17:22 10° E visible
27 Nov - 06:48:21 10° WNW 06:51:24 35° SW 06:54:27 10° SSE daylight
27 Nov - 21:52:00 10° S 21:54:40 23° SE 21:57:20 10° ENE night (unlit)
27 Nov - 23:28:15 10° W 23:31:12 30° NW 23:34:09 10° NNE night (unlit)
28 Nov - 04:22:39 10° NNW 04:24:41 15° NNE 04:26:42 10° ENE visible
28 Nov - 05:58:22 10° NW 06:01:39 74° SW 06:04:56 10° SE visible
28 Nov - 21:03:39 10° SSE 21:05:00 12° SE 21:06:22 10° ESE night (unlit)
28 Nov - 22:38:03 10° WSW 22:41:16 54° NW 22:44:31 10° NE night (unlit)
29 Nov - 00:17:41 10° NW 00:18:31 11° NNW 00:19:22 10° N night (unlit)
29 Nov - 03:33:41 10° N 03:34:33 11° NNE 03:35:26 10° NE night (unlit)
29 Nov - 05:08:33 10° NW 05:11:48 55° NE 05:15:02 10° ESE visible
29 Nov - 06:46:43 10° WSW 06:48:04 12° SW 06:49:25 10° SSW visible
29 Nov - 21:48:08 10° SW 21:51:24 75° SE 21:54:41 10° NE night (unlit)
29 Nov - 23:26:22 10° WNW 23:28:22 15° NNW 23:30:22 10° NNE night (unlit)
30 Nov - 04:18:52 10° NNW 04:21:50 30° NE 04:24:48 10° E visible
30 Nov - 05:55:41 10° WNW 05:58:22 23° SW 06:01:02 10° S visible
30 Nov - 20:58:32 10° SSW 21:01:34 36° SE 21:04:36 10° ENE night (unlit)
30 Nov - 22:35:36 10° W 22:38:15 22° NNW 22:40:55 10° NNE night (unlit)
01 Dec - 03:29:18 10° NNW 03:31:46 19° NNE 03:34:14 10° ENE night (unlit)
01 Dec - 05:05:24 10° WNW 05:08:33 45° SW 05:11:43 10° SSE visible
01 Dec - 20:09:24 10° S 20:11:46 18° SE 20:14:07 10° E night (unlit)
01 Dec - 21:45:07 10° WSW 21:48:11 36° NW 21:51:16 10° NNE night (unlit)
02 Dec - 02:39:54 10° N 02:41:36 13° NNE 02:43:18 10° NE night (unlit)
02 Dec - 04:15:21 10° NW 04:18:39 86° NE 04:21:56 10° SE visible
02 Dec - 20:54:54 10° SW 20:58:10 70° NW 21:01:27 10° NE night (unlit)
02 Dec - 22:33:56 10° NW 22:35:18 12° NNW 22:36:41 10° N night (unlit)
03 Dec - 03:25:29 10° NW 03:28:39 43° NE 03:31:48 10° ESE night (unlit)
03 Dec - 05:03:00 10° W 05:05:00 15° SW 05:06:59 10° SSW visible
03 Dec - 20:04:57 10° SW 20:08:11 57° SE 20:11:25 10° ENE visible
03 Dec - 21:42:46 10° WNW 21:45:03 17° NNW 21:47:20 10° NNE night (unlit)
04 Dec - 02:35:43 10° NNW 02:38:31 25° NNE 02:41:20 10° E night (unlit)
04 Dec - 04:12:14 10° WNW 04:15:08 29° SW 04:18:01 10° SSE night (unlit)
04 Dec - 19:15:23 10° SSW 19:18:14 28° SE 19:21:06 10° ENE visible
04 Dec - 20:51:59 10° W 20:54:50 26° NNW 20:57:41 10° NNE night (unlit)
05 Dec - 01:46:04 10° NNW 01:48:18 17° NNE 01:50:31 10° ENE night (unlit)
05 Dec - 03:21:56 10° NW 03:25:11 60° SW 03:28:24 10° SE night (unlit)
05 Dec - 18:26:26 10° SSE 18:28:20 15° SE 18:30:14 10° E visible
05 Dec - 20:01:29 10° WSW 20:04:39 45° NW 20:07:51 10° NE visible
06 Dec - 00:56:41 10° N 00:57:58 12° NNE 00:59:15 10° NE night (unlit)
06 Dec - 02:31:50 10° NW 02:35:07 66° NE 02:38:22 10° ESE night (unlit)
06 Dec - 19:11:14 10° SW 19:14:32 90° WNW 19:17:50 10° NE visible
06 Dec - 20:49:47 10° WNW 20:51:33 14° NNW 20:53:20 10° N night (unlit)
